User: anonymous   Login
Location: Unspecified
(0.0000°N, 0.0000°E)
Time: 03:40:30
(UTC+00:00)
Language:

Meteor 2-21 - Orbit

View from above orbital plane
View from above orbital plane
View from above satellite
View from above satellite

Ground track
Ground track

The orbit data is extracted from the following two-line orbital elements,

1 22782U 93055A   18114.59566260  .00000031  00000-0  14463-4 0  9993
2 22782  82.5465 136.4678 0020860 277.9119 197.8699 13.83808245244764
Epoch (UTC): 24 April 2018 14:17:45
Eccentricity: 0.0020860
inclination: 82.5465°
perigee height: 935 km
apogee height: 965 km
right ascension of ascending node: 136.4678°
argument of perigee: 277.9119°
revolutions per day: 13.83808245
mean anomaly at epoch: 197.8699°
orbit number at epoch: 24476

The dashed part of the orbit path shows where the satellite is in the earth's shadow,  

DLR